Volver al catálogo

CZ-6A DEB

ActivoPO
NORAD 61403·DEBRIS·🇨🇳 China

Lanzado Aug 6, 2024 desde Taiyuan Satellite Launch Center

Loading…

Próximos Pases (próximas 24 horas)

TLE

ActualizadoSource: Space-Track

Época: Sep 14, 2026, 11:25 UTC

1 61403U 24140XU  26257.47599021  .00001528  00000-0  62041-3 0  9996
2 61403  88.9456 259.2115 0030377 241.1541 118.6603 14.26936775104717

Sigue CZ-6A DEB en tiempo real con AllMySat

Download on the App Store